Regional Weather Roundup
Issued by NWS

Home | Current Version | Previous Version | Text Only | Print | Product List | Glossary Off
Versions: 1 2 3 4 5 6 7 8 9 10 11 12 13 14 15 16 17 18 19 20 21 22 23 24 25 26 27 28 29 30 31 32 33 34 35 36 37 38 39 40 41 42 43 44 45 46 47 48 49 50

000
ASUS43 KMKX 050900
RWRWI

WISCONSIN REGIONAL WEATHER ROUNDUP
NATIONAL WEATHER SERVICE MILWAUKEE/SULLIVAN WI
400 AM CDT WED AUG 05 2015

NOTE: "FAIR" INDICATES FEW OR NO CLOUDS BELOW 12,000 FEET WITH NO
SIGNIFICANT WEATHER AND/OR OBSTRUCTIONS TO VISIBILITY.

WIZ001-002-006>008-014>016-023>028-051000-
NORTHWEST WISCONSIN

CITY           SKY/WX    TMP DP  RH WIND       PRES   REMARKS
SUPERIOR ARPT  PTCLDY    45  45  99 CALM      30.09R
ASHLAND        FOG       48  48 100 SW3       30.09R VSB 1/2
HAYWARD        CLEAR     49  47  93 NE5       30.09R
SIREN          CLEAR     51  49  94 CALM      30.08S
CUMBERLAND     CLEAR     50  50 100 CALM      30.08R
RICE LAKE      CLEAR     53  51  95 CALM      30.09R
CHETEK         CLEAR     55  53  92 CALM      30.07S
LADYSMITH      MOCLDY    53  51  93 CALM      30.09S
EAU CLAIRE     CLEAR     55  53  93 NE3       30.05S
MENOMONIE      CLEAR     57  54  88 CALM      30.06R
NEW RICHMOND   CLEAR     57  55  91 CALM      30.07R
OSCEOLA        CLEAR     58  58  99 E3        30.09R
$$

WIZ003>005-009-010-017-018-051000-
NORTH CENTRAL WISCONSIN

CITY           SKY/WX    TMP DP  RH WIND       PRES   REMARKS
MANITOWISH WTR FOG       43  43 100 CALM      30.09S VSB 1/2
ARBOR VITAE    CLEAR     47  46  93 CALM      30.09R
WOODRUFF       CLEAR     47  46  93 CALM      30.09R
RHINELANDER    CLEAR     47  44  90 CALM      30.10R
EAGLE RIVER    PTCLDY    43  43 100 CALM      30.09S
LAND O LAKES   CLEAR     40  40  99 CALM      30.10S
PHILLIPS       PTCLDY    50  49  98 CALM      30.08S
TOMAHAWK       CLOUDY    55  51  89 CALM      30.09S
MEDFORD        PTCLDY    51  50  97 NE5       30.07S
MERRILL        NOT AVBL
$$

WIZ029-030-035-036-043>047-051000-
CENTRAL WISCONSIN

CITY           SKY/WX    TMP DP  RH WIND       PRES   REMARKS
WAUSAU         PTCLDY    56  52  86 CALM      30.06R
MOSINEE        CLEAR     54  52  94 E5        30.07S
MARSHFIELD     CLEAR     57  51  80 NE5       30.06R
STEVENS POINT  CLOUDY    51  50  97 N3        30.06S
WAUPACA        CLEAR     56  55  97 N6        30.05S
WAUTOMA        NOT AVBL
WISC RAPIDS    MOCLDY    57  53  86 CALM      30.06S
CAMP DOUGLAS   PTCLDY    52  52 100 N5        30.04R FOG
$$

WIZ011>013-019>022-031-037>040-048>050-051000-
NORTHEAST WISCONSIN

CITY           SKY/WX    TMP DP  RH WIND       PRES   REMARKS
ANTIGO         MOCLDY    54  52  94 CALM      30.08S
SHAWANO        MOCLDY    62  57  86 NE3       30.07R
OCONTO         MOCLDY    55  55 100 CALM      30.06R
STURGEON BAY   PTCLDY    57  52  82 NE3       30.08S
GREEN BAY      CLEAR     56  55  97 N3        30.06R
MANITOWOC      NOT AVBL
APPLETON       CLEAR     55  55 100 NE3       30.05R
CLINTONVILLE   CLEAR     54  54 100 CALM      30.06R
OSHKOSH        CLEAR     57  52  83 W3        30.03S
$$

WIZ032>034-041-042-053>061-051000-
SOUTHWEST WISCONSIN

CITY           SKY/WX    TMP DP  RH WIND       PRES   REMARKS
LA CROSSE      CLEAR     60  57  89 SE3       30.04S
SPARTA         CLEAR     49  47  95 CALM      30.06R
VIROQUA        CLEAR     57  55  94 CALM      30.06S
BOSCOBEL       PTCLDY    52  51  97 CALM      30.05S FOG
PRAIRIE DU CHI PTCLDY    56  54  93 CALM      30.05R
PLATTEVILLE    PTCLDY    56  53  90 N3        30.05S
$$

WIZ056-057-062-063-064-067-068-051000-
SOUTH CENTRAL WISCONSIN

CITY           SKY/WX    TMP DP  RH WIND       PRES   REMARKS
REEDSBURG      CLEAR     54  53  98 CALM      30.05S
BARABOO/DELLS  CLEAR     55  52  90 CALM      30.05S
LONE ROCK      NOT AVBL
MINERAL POINT  CLEAR     61  54  77 CALM      30.06S
MADISON        CLEAR     57  54  89 CALM      30.03F
MIDDLETON      CLEAR     55  53  95 CALM      30.05S
WATERTOWN      CLEAR     54  54 100 CALM      30.04S
MONROE         PTCLDY    63  52  67 NW7       30.05R
JANESVILLE     CLEAR     57  54  88 CALM      30.04R
$$

WIZ051-052-058>065-066-070>072-051000-
SOUTHEAST WISCONSIN

CITY           SKY/WX    TMP DP  RH WIND       PRES   REMARKS
MILWAUKEE      MOCLDY    64  56  75 CALM      30.02F
WAUKESHA       PTCLDY    55  52  88 CALM      30.05S
MILWAUKEE/TIMM PTCLDY    59  52  77 CALM      30.04S
RACINE         CLEAR     62  55  77 W6        30.04S
BURLINGTON     CLEAR     51  50  97 CALM      30.03F
KENOSHA        CLEAR     57  55  93 W3        30.03F
FOND DU LAC    CLEAR     56  55  97 CALM      30.04S
SHEBOYGAN      PTCLDY    55  55 100 CALM      30.04R
WEST BEND      CLEAR     55  54  94 CALM      30.04S
JUNEAU         MOCLDY    56  55  93 CALM      30.05S
$$

LSZ147-162-051000-
LAKE SUPERIOR

STATION/POSITION TIME  TEMP    WIND        PRES    WAVE
                       AIR SEA DIR/SP/G            HT/PER
                 (UTC) (F)     (DEG/KT/KT) (MB)    (FT/S)
W MID LAKE BUOY  0750   57 57  290/  8/ 10 1018.6R   0
DEVILS ISLAND    0800   58     350/  6/  8 1019.0S
PORT WING        0840   52     170/  3/  4 1019.0R
SAXON HARBOR     0840   50        CALM     1018.3R
$$

LMZ867-665-643>646-051000-
LAKE MICHIGAN

STATION/POSITION TIME  TEMP    WIND        PRES    WAVE
                       AIR SEA DIR/SP/G            HT/PER
                 (UTC) (F)     (DEG/KT/KT) (MB)    (FT/S)
CHAMBERS ISLAND  0800   63     340/  9/ 11 1017.6R
S GREEN BAY BUOY 0800   65 71   80/ 10/ 14 1018.7
N MID LAKE BUOY  0750   61 68  310/  8/ 10 1017.5F   1/ 3
NORTHPORT PIER   0800   63      10/  7/ 11 1017.6S
SISTER BAY       0818   58        CALM       N/A
ALGOMA LAKESHORE 0843           60/  9/ 12   N/A
KEWAUNEE LAKESHO 0800   60      30/  3/  5 1016.7R
SHEBOYGAN LAKESH 0800   62     340/  7/  8 1017.0R
PORT WASHINGTON  0800   63     270/  1/  3 1017.3S
ATWATER BUOY     0800   62 60  250/  4/  4 1018.1R
MILWAUKEE LAKESH 0800   68     290/  3/  4   N/A
KENOSHA   LAKESH 0800   66     270/  6/  8 1016.6S
$$

TC  - TEMPERATURE IN CELSIUS
VSB - VISIBILITY IN STATUTE MILES
WCI - WIND CHILL INDEX
HX  - HEAT INDEX




USA.gov is the U.S. government's official web portal to all federal, state and local government web resources and services.